Regional Weather Roundup
Issued by NWS Jackson, KY

Home | Current Version | Previous Version | Graphics & Text | Print | Product List | Glossary On
Versions: 1 2 3 4 5 6 7 8 9 10 11 12 13 14 15 16 17 18 19 20 21 22 23 24 25 26 27 28 29 30 31 32 33 34 35 36 37 38 39 40 41 42 43 44 45 46 47 48 49
000
ASUS43 KJKL 312210
RWRJKL

EAST KENTUCKY HOURLY WEATHER ROUNDUP
NATIONAL WEATHER SERVICE JACKSON KY
600 PM EDT FRI JUL 31 2015

NOTE: "FAIR" INDICATES FEW OR NO CLOUDS BELOW 12,000 FEET WITH
NO SIGNIFICANT WEATHER AND/OR OBSTRUCTIONS TO VISIBILITY.

* THESE REPORTS ARE NOT UNDER NWS QUALITY CONTROL AND MAY NOT
  REPORT WEATHER SUCH AS PRECIPITATION AND FOG.

KYZ079-080-083-085-087-088-110-112-115-119-120-312300
...EASTERN KENTUCKY...

CITY           SKY/WX    TMP DP  RH WIND       PRES   REMARKS
JACKSON        SUNNY     84  58  40 NW5       30.03F
LONDON         MOSUNNY   87  55  33 N7        30.03F
SOMERSET*      SUNNY     82  54  36 NW8       30.03F
MONTICELLO*    SUNNY     87  61  41 NW3       30.05F
MIDDLESBORO*   SUNNY     84  59  43 N8        30.02F
HAZARD APT*    CLEAR     84  59  42 W5        30.02F
BLACK MTN*       N/A     70  57  64 N3          N/A
PIKEVILLE APT* MOSUNNY   82  59  44 W6        30.02F
BIG SANDY*     CLEAR     84  61  45 NW3       30.01F
MOREHEAD APT*  CLEAR     84  61  45 W6        30.02S
$$

KYZ035-036-041-042-044-050-067-078-099-312300
...CENTRAL KENTUCKY...

CITY           SKY/WX    TMP DP  RH WIND       PRES   REMARKS
MT STERLING*   SUNNY     79  64  61 W5        30.02F
FLEMING/MASON* SUNNY     84  61  45 W8        30.00F
DANVILLE*      SUNNY     86  59  39 W5        30.03F
RICHMOND*      SUNNY     82  57  42 W7        30.02F
LEXINGTON      MOSUNNY   86  60  41 NW9       30.01F
FRANKFORT      MOSUNNY   86  57  37 NW7       30.00F
$$

KYZ091>093-OHZ055-061-077-WVZ005-015-034-035-042-312300
...SOUTHERN OHIO/WEST VIRGINIA...

CITY           SKY/WX    TMP DP  RH WIND       PRES   REMARKS
COVINGTON      MOSUNNY   86  60  41 W12       29.98F
COLUMBUS       MOSUNNY   86  57  37 W16       29.93F
DAYTON         MOSUNNY   84  59  42 W13       29.96F
WILMINGTON     SUNNY     84  58  40 W9        29.97F
HUNTINGTON     MOSUNNY   85  60  42 W7        29.97F
CHARLESTON     MOSUNNY   85  57  38 VRB6      29.97F
PINEVILLE*     SUNNY     80  64  56 MISG      30.08S
BECKLEY        SUNNY     78  55  44 NW8       30.06F
BLUEFIELD      PTSUNNY   80  55  42 N8        30.08F
$$

VAZ002-007-008-TNZ017-027-036-066-071-312300
...SOUTHWEST VIRGINIA/EAST TENNESSEE...

CITY           SKY/WX    TMP DP  RH WIND       PRES   REMARKS
WISE*          SUNNY     81  50  34 NW5       30.10F
ABINGDON*      SUNNY     82  51  33 N7        30.05S
BRISTOL        MOSUNNY   85  54  34 VRB5      30.01F
KNOXVILLE      MOSUNNY   85  58  39 NE10      29.99F
OAK RIDGE      SUNNY     87  58  37 VRB3      30.01F
CROSSVILLE     SUNNY     82  56  40 N12G17    30.06F
NASHVILLE      MOSUNNY   89  60  37 N10       30.02F
$$

...KEY TO REMARKS...
VSB - VISIBILITY IN MILES
WCI - WIND CHILL INDEX
HX  - HEAT INDEX

$$


USA.gov is the U.S. government's official web portal to all federal, state and local government web resources and services.